Printer-friendly version

IAU Minor Planet Center

Minor Planet Center

MPEC 2006-D22 : 2006 DB1

The following Minor Planet Electronic Circular may be linked-to from your own Web pages, but must not otherwise be redistributed electronically.


Read MPEC 2006-D21 Read MPEC 2006-D23


M.P.E.C. 2006-D22                                Issued 2006 Feb. 22, 18:40 UT

     The Minor Planet Electronic Circulars contain information on unusual
         minor planets and routine data on comets.  They are published
   on behalf of Commission 20 of the International Astronomical Union by the
          Minor Planet Center, Smithsonian Astrophysical Observatory,
                          Cambridge, MA 02138, U.S.A.

                  Supported in part by the Brinson Foundation
                  Supported in part by the TABASGO Foundation
             Prepared using the Tamkin Foundation Computer Network

                              MPC@CFA.HARVARD.EDU
          URL http://cfa-www.harvard.edu/iau/mpc.html  ISSN 1523-6714

                                   2006 DB1

Observations:
     K06D01B* C2006 02 21.37900 11 27 25.92 +12 23 39.9          19.2 V ED022703
     K06D01B  C2006 02 21.38495 11 27 25.77 +12 23 23.5          19.2 V ED022703
     K06D01B  C2006 02 21.39091 11 27 25.63 +12 23 06.0          18.9 V ED022703
     K06D01B  C2006 02 21.39689 11 27 25.38 +12 22 48.6          19.0 V ED022703
     K06D01B  C2006 02 21.40372 11 27 25.09 +12 22 28.9          19.0 V ED022703
     K06D01B  C2006 02 21.40682 11 27 25.09 +12 22 19.9          18.8 V ED022703
     K06D01B  C2006 02 21.40994 11 27 25.05 +12 22 11.4          18.6 V ED022703
     K06D01B  C2006 02 21.41302 11 27 24.98 +12 22 02.2          19.0 V ED022703
     K06D01B  C2006 02 22.00191 11 27 15.38 +11 53 47.7          18.8 V ED022A13
     K06D01B  C2006 02 22.00845 11 27 15.23 +11 53 29.4          18.9 V ED022A13
     K06D01B  C2006 02 22.01634 11 27 14.99 +11 53 06.8          18.7 V ED022A13
     K06D01B  C2006 02 22.24924 11 27 11.70 +11 42 09.3          19.3 R ED022854
     K06D01B  C2006 02 22.25499 11 27 11.58 +11 41 53.1          19.3 R ED022854
     K06D01B  C2006 02 22.26074 11 27 11.46 +11 41 35.8          19.4 R ED022854
     K06D01B  C2006 02 22.26649 11 27 11.20 +11 41 20.8          19.5 R ED022854
     K06D01B  C2006 02 22.28946 11 27 10.10 +11 40 10.3          20.6 R ED022H36
     K06D01B  C2006 02 22.30553 11 27 09.51 +11 39 26.9          19.2 R ED022H36
     K06D01B IC2006 02 22.31280 11 27 09.33 +11 39 06.5          19.9 R ED022H36
     K06D01B  C2006 02 22.32604 11 27 09.37 +11 38 32.7          19.0 V ED022703
     K06D01B  C2006 02 22.32924 11 27 09.28 +11 38 22.4          19.1 V ED022703
     K06D01B  C2006 02 22.32977 11 27 09.28 +11 38 21.0          19.4 V ED022703
     K06D01B  C2006 02 22.33296 11 27 09.21 +11 38 10.3          18.7 V ED022703
     K06D01B  C2006 02 22.33348 11 27 09.24 +11 38 10.0          19.0 V ED022703
     K06D01B  C2006 02 22.33664 11 27 09.10 +11 38 01.4          19.1 V ED022703
     K06D01B  C2006 02 22.33716 11 27 09.09 +11 37 58.9          18.9 V ED022703
     K06D01B  C2006 02 22.35738 11 27 08.38 +11 37 02.1          19.0 V ED022703
     K06D01B  C2006 02 22.35861 11 27 08.31 +11 36 58.2          19.0 V ED022703
     K06D01B  C2006 02 22.36782 11 27 08.06 +11 36 32.1          19.0 V ED022703
     K06D01B  C2006 02 22.36904 11 27 07.99 +11 36 29.0          18.8 V ED022703
     K06D01B  C2006 02 22.38437 11 27 07.53 +11 35 45.1          18.9 V ED022703
     K06D01B  C2006 02 22.38559 11 27 07.52 +11 35 40.9          19.0 V ED022703
     K06D01B  C2006 02 22.39548 11 27 07.16 +11 35 13.0          18.6 V ED022703
     K06D01B  C2006 02 22.40200 11 27 07.05 +11 34 53.7          18.6 V ED022703

Observer details:
703 Catalina Sky Survey.  Observer R. Hill.  Measurers E. C. Beshore,
    E. J. Christensen, G. J. Garradd, A. D. Grauer, R. E. Hill, R. A. Kowalski,
    S. M. Larson, R. H. McNaught.  0.68-m Schmidt + CCD.
854 Sabino Canyon Observatory, Tucson.  Observer J. E. McGaha.  0.36-m f/10.0
    Schmidt-Cassegrain + CCD.
A13 Observatoire Naef, Marly.  Observer P. Kocher.  0.5-m f/3.3 Hypergraph
    + CCD.
H36 Sandlot Observatory, Scranton.  Observer G. Hug.  0.30-m
    Schmidt-Cassegrain + CCD.

Orbital elements:
2006 DB1                                                 Earth MOID = 0.2294 AU
Epoch 2006 Mar. 6.0 TT = JDT 2453800.5                  MPC
M   8.29606              (2000.0)            P               Q
n   0.24549523     Peri.  151.00656     -0.72213284     -0.69038675
a   2.5260426      Node   345.07609     +0.59766627     -0.59103275
e   0.5236807      Incl.    9.71930     +0.34830904     -0.41718872
P   4.01           H   21.0           G   0.15           U   8
Residuals in seconds of arc
060221 703  0.3-  0.3-    060222 854  0.8-  0.5+    060222 703  0.9+  0.1+
060221 703  0.2+  0.5+    060222 854  0.1-  0.6+    060222 703  0.4+  0.4+
060221 703  0.7+  0.1+    060222 854  0.6+  0.4-    060222 703  0.5+  0.6-
060221 703  0.3-  0.1-    060222 854  0.7-  0.8+    060222 703  0.5-  0.1+
060221 703  1.6-  0.1-    060222 H36  1.2+  1.5-    060222 703  0.9-  0.2-
060221 703  0.2-  0.2-    060222 H36  0.2-  0.8+    060222 703  0.2-  0.1-
060221 703  0.5+  0.3+    060222 H36  0.5+  1.1+    060222 703  0.7-  0.3+
060221 703  0.8+  0.0     060222 703  0.6-  1.6+    060222 703  0.2-  0.1+
060222 A13  0.2-  0.5-    060222 703  0.5-  0.4+    060222 703  0.2+  0.6-
060222 A13  0.3+  0.1-    060222 703  0.2-  0.5+    060222 703  0.5-  0.3-
060222 A13  0.1+  0.2-    060222 703  0.3+  1.1-    060222 703  1.0+  1.0-

Ephemeris:
2006 DB1                 a,e,i = 2.53, 0.52, 10                  q = 1.2032
Date    TT    R. A. (2000) Decl.     Delta      r     Elong.  Phase     V
2006 02 14    11 28.33   +18 21.7    0.243    1.213   155.7    19.6    19.3
2006 02 24    11 26.57   +10 19.9    0.250    1.233   165.5    11.6    19.1
2006 03 06    11 21.93   +03 06.0    0.271    1.262   175.1     3.9    19.0
2006 03 16    11 17.47   -02 39.0    0.307    1.299   172.3     5.9    19.5
2006 03 26    11 15.22   -06 47.6    0.357    1.344   163.5    12.2    20.1
2006 04 05    11 16.19   -09 36.9    0.422    1.395   155.2    17.5    20.8
2006 04 15    11 20.57   -11 32.0    0.499    1.450   147.7    21.7    21.4
2006 04 25    11 27.90   -12 53.8    0.589    1.509   140.7    24.9    21.9

Kyle E. Smalley              (C) Copyright 2006 MPC           M.P.E.C. 2006-D22

Read MPEC 2006-D21 Read MPEC 2006-D23


Our Web policy. Index to the CBAT/MPC/ICQ pages.


Valid HTML 4.01!